Simultaneous Nadir Overpasses (SNOs) Predictions

Prediction of SNOs between NOAA-20 and LANDSAT-8 Satellite Orbit:

Table of predicted SNOs for the next 14.0 days since TLE Epoch: 7/27/2024
Index Date (NOAA-20) Time (NOAA-20) Lat,Lon (NOAA-20) SZA (NOAA-20 ) Date (LANDSAT-8) Time (LANDSAT-8) Lat,Lon (LANDSAT-8) SZA (LANDSAT-8 ) Distance(km) Time Diff (sec)
1 07/27/2024 14:27:52 70.62, -41.55 51.65 07/27/2024 14:29:02 70.52, -40.31 51.49 46.94 70
2 07/27/2024 15:18:25 -70.08, 126.63 128.93 07/27/2024 15:18:38 -70.07, 126.66 128.94 1.52 13
3 07/27/2024 16:09:09 69.94, -65.86 50.94 07/27/2024 16:08:06 69.92, -65.90 50.93 2.67 63
4 07/30/2024 06:44:38 70.14, 74.98 51.77 07/30/2024 06:45:38 70.13, 75.00 51.75 0.93 60
5 07/30/2024 07:35:19 -70.01,-117.50 128.36 07/30/2024 07:35:08 -70.01,-117.53 128.35 1.34 11
6 07/30/2024 08:25:53 69.34, 50.77 50.96 07/30/2024 08:24:44 69.42, 49.30 51.10 58.40 69
7 08/01/2024 23:01:32 70.08,-169.17 52.38 08/01/2024 23:02:07 70.09,-169.16 52.39 1.52 35
8 08/01/2024 23:52:14 -70.00, -1.73 127.70 08/01/2024 23:51:37 -69.98, -1.69 127.72 2.49 37
9 08/04/2024 14:27:52 -70.67, 138.35 126.30 08/04/2024 14:29:01 -70.56, 139.77 126.47 53.72 69
10 08/04/2024 15:18:26 70.03, -53.33 53.04 08/04/2024 15:18:36 70.02, -53.38 53.02 2.14 10
11 08/04/2024 16:09:08 -69.95, 114.12 127.05 08/04/2024 16:08:05 -69.96, 114.18 127.03 3.08 63
12 08/07/2024 06:44:35 -70.11,-104.99 126.16 08/07/2024 06:45:35 -70.13,-104.97 126.15 3.02 60
13 08/07/2024 07:35:19 70.00, 62.49 53.74 08/07/2024 07:35:02 70.02, 62.52 53.76 3.30 17
14 08/07/2024 08:25:51 -69.37,-129.28 126.91 08/07/2024 08:24:41 -69.42,-130.67 126.80 54.88 70
15 08/09/2024 23:01:29 -70.07, 10.83 125.43 08/09/2024 23:02:03 -70.05, 10.81 125.46 2.49 34
16 08/09/2024 23:52:13 69.97, 178.30 54.47 08/09/2024 23:51:30 69.94, 178.30 54.45 3.36 43



Historial Predications of SNOs between NOAA-20 and LANDSAT-8
